Skip Page Navigation
NASA JPL Caltech
NASA Logo - Jet Propulsion Laboratory + View the NASA Portal
+ Center for Near-Earth Object Studies
JPL Home Earth Solar System Stars & Galaxies Technology
JPL Solar System Dynamics
BODIES ORBITS EPHEMERIDES TOOLS PHYSICAL DATA DISCOVERY FAQ SITE MAP
JPL Small-Body Database Browser
Search: [ help ]  
117712 Podmaniczky (2005 GD)
Classification: Main-belt Asteroid          SPK-ID: 2117712
Ephemeris | Orbit Diagram | Orbital Elements | Mission Design | Physical Parameters | Discovery Circumstances | Close-Approach Data ]

[ show orbit diagram ]
Orbital Elements at Epoch 2459000.5 (2020-May-31.0) TDB
Reference: JPL 25 (heliocentric ecliptic J2000)
 Element Value Uncertainty (1-sigma)   Units 
e .1932132305928551 5.0856e-08  
a 2.426227515295691 1.439e-08 au
q 1.957448258912135 1.2141e-07 au
i 3.454158766187521 4.6362e-06 deg
node 156.4352109933312 6.4829e-05 deg
peri 209.2287112609762 6.5446e-05 deg
M 187.4904672925689 1.0416e-05 deg
tp 2459661.964148558069
(2022-Mar-23.46414856)
4.3377e-05 TDB
period 1380.370636588288
3.78
1.2281e-05
3.362e-08
d
yr
n .2607995204025586 2.3203e-09 deg/d
Q 2.895006771679248 1.7171e-08 au
  Orbit Determination Parameters
   # obs. used (total)      637  
   data-arc span      10489 days (28.72 yr)  
   first obs. used      1991-08-05  
   last obs. used      2020-04-23  
   planetary ephem.      DE431  
   SB-pert. ephem.      SB431-N16  
   condition code      0  
   norm. resid. RMS      .52712  
   source      ORB  
   producer      Otto Matic  
   solution date      2020-May-20 20:14:29  

Additional Information
 Earth MOID = .956453 au 
 Jupiter MOID = 2.5641 au 
 T_jup = 3.482 
[ show covariance matrix ]

Ephemeris | Orbit Diagram | Orbital Elements | Mission Design | Physical Parameters | Discovery Circumstances | Close-Approach Data ]

Physical Parameter Table
Parameter Symbol Value Units Sigma Reference Notes
absolute magnitude H 16.2   n/a MPO417613  

117712 Podmaniczky           Discovered 2005 Apr. 1 by K. Sárneczky at Piszkéstető.
Baron Géza Podmaniczky (1839-1923) was a Hungarian landowner and amateur astronomer. At the encouragement of Konkoly-Thege Miklós, he established the Kiskartal Observatory on his land in 1884. Several Hungarian astronomers worked there, mainly by making observations of planets, comets and variable stars.
NOTE: some special characters may not display properly (any characters within {} are an attempt to place the proper accent above a character)
Reference: 20090806/MPCPages.arcLast Updated: 2011-05-09

[ show close-approach data ]
Alternate Designations
 2005 GD = 1991 PY27 = 2003 YH86 
Ephemeris | Orbit Diagram | Orbital Elements | Mission Design | Physical Parameters | Discovery Circumstances | Close-Approach Data ]
ABOUT SSD CREDITS/AWARDS PRIVACY/COPYRIGHT GLOSSARY LINKS
FirstGov 2020-Aug-03 15:41 UT
(server date/time)  
NASA Home Page
Site Manager:   Ryan S. Park
Webmaster  Alan B. Chamberlin